Time,TemperatureF,DewpointF,PressureIn,WindDirection,WindDirectionDegrees,WindSpeedMPH,WindSpeedGustMPH,Humidity,HourlyPrecipIn,Conditions,Clouds,dailyrainin,SoftwareType,DateUTC
2013-10-30 00:12:00,-999.0,-99.9,31.68,North,-999,-999.0,-999.0,-999,0.00,,,0.00,weatherlink.com 1.10,2013-10-30 06:12:00,
2013-10-30 00:27:00,-999.0,-99.9,31.68,North,-999,-999.0,-999.0,-999,0.00,,,0.00,weatherlink.com 1.10,2013-10-30 06:27:00,
2013-10-30 00:42:00,-999.0,-99.9,31.67,North,-999,-999.0,-999.0,-999,0.00,,,0.00,weatherlink.com 1.10,2013-10-30 06:42:00,
2013-10-30 00:57:00,-999.0,-99.9,31.67,North,-999,-999.0,-999.0,-999,0.00,,,0.00,weatherlink.com 1.10,2013-10-30 06:57:00,
2013-10-30 01:12:00,-999.0,-99.9,31.67,North,-999,-999.0,-999.0,-999,0.00,,,0.00,weatherlink.com 1.10,2013-10-30 07:12:00,
2013-10-30 01:28:00,-999.0,-99.9,31.67,North,-999,-999.0,-999.0,-999,0.00,,,0.00,weatherlink.com 1.10,2013-10-30 07:28:00,
2013-10-30 01:43:00,-999.0,-99.9,31.66,North,-999,-999.0,-999.0,-999,0.00,,,0.00,weatherlink.com 1.10,2013-10-30 07:43:00,
2013-10-30 01:58:00,-999.0,-99.9,31.67,North,-999,-999.0,-999.0,-999,0.00,,,0.00,weatherlink.com 1.10,2013-10-30 07:58:00,
2013-10-30 02:13:00,-999.0,-99.9,31.66,North,-999,-999.0,-999.0,-999,0.00,,,0.00,weatherlink.com 1.10,2013-10-30 08:13:00,
2013-10-30 02:28:00,28.4,18.0,31.67,NW,319,0.0,2.0,65,0.00,,,0.00,weatherlink.com 1.10,2013-10-30 08:28:00,
2013-10-30 02:43:00,28.4,18.0,31.67,NW,319,0.0,3.0,65,0.00,,,0.00,weatherlink.com 1.10,2013-10-30 08:43:00,
2013-10-30 02:58:00,28.2,18.0,31.68,NW,319,1.0,2.0,66,0.00,,,0.00,weatherlink.com 1.10,2013-10-30 08:58:00,
2013-10-30 03:13:00,28.6,18.0,31.68,NW,319,0.0,2.0,65,0.00,,,0.00,weatherlink.com 1.10,2013-10-30 09:13:00,
2013-10-30 03:28:00,28.6,18.0,31.68,NW,319,0.0,2.0,65,0.00,,,0.00,weatherlink.com 1.10,2013-10-30 09:28:00,
2013-10-30 03:43:00,28.4,18.0,31.68,NW,319,1.0,2.0,65,0.00,,,0.00,weatherlink.com 1.10,2013-10-30 09:43:00,
2013-10-30 03:58:00,28.5,18.0,31.68,NW,319,1.0,2.0,66,0.00,,,0.00,weatherlink.com 1.10,2013-10-30 09:58:00,
2013-10-30 04:13:00,28.7,18.0,31.68,NW,319,0.0,4.0,65,0.00,,,0.00,weatherlink.com 1.10,2013-10-30 10:13:00,
2013-10-30 04:28:00,28.3,18.0,31.68,NW,319,0.0,0.0,66,0.00,,,0.00,weatherlink.com 1.10,2013-10-30 10:28:00,
2013-10-30 04:43:00,28.3,18.0,31.68,NW,319,0.0,1.0,65,0.00,,,0.00,weatherlink.com 1.10,2013-10-30 10:43:00,
2013-10-30 04:58:00,28.7,18.0,31.68,NW,319,0.0,2.0,65,0.00,,,0.00,weatherlink.com 1.10,2013-10-30 10:58:00,
2013-10-30 05:13:00,29.0,19.0,31.67,NW,319,0.0,0.0,66,0.00,,,0.00,weatherlink.com 1.10,2013-10-30 11:13:00,
2013-10-30 05:28:00,29.3,19.0,31.68,NW,319,0.0,3.0,65,0.00,,,0.00,weatherlink.com 1.10,2013-10-30 11:28:00,
2013-10-30 05:43:00,29.7,20.0,31.67,NW,319,0.0,0.0,66,0.00,,,0.00,weatherlink.com 1.10,2013-10-30 11:43:00,
2013-10-30 05:58:00,29.7,19.0,31.68,NW,319,0.0,0.0,65,0.00,,,0.00,weatherlink.com 1.10,2013-10-30 11:58:00,
2013-10-30 06:13:00,-999.0,-99.9,31.67,North,-999,-999.0,-999.0,-999,0.00,,,0.00,weatherlink.com 1.10,2013-10-30 12:13:00,
2013-10-30 06:28:00,-999.0,-99.9,31.67,North,-999,-999.0,-999.0,-999,0.00,,,0.00,weatherlink.com 1.10,2013-10-30 12:28:00,
2013-10-30 06:43:00,-999.0,-99.9,31.67,North,-999,-999.0,-999.0,-999,0.00,,,0.00,weatherlink.com 1.10,2013-10-30 12:43:00,
2013-10-30 06:58:00,-999.0,-99.9,31.66,North,-999,-999.0,-999.0,-999,0.00,,,0.00,weatherlink.com 1.10,2013-10-30 12:58:00,
2013-10-30 07:13:00,-999.0,-99.9,31.67,North,-999,-999.0,-999.0,-999,0.00,,,0.00,weatherlink.com 1.10,2013-10-30 13:13:00,
2013-10-30 07:28:00,-999.0,-99.9,31.67,North,-999,-999.0,-999.0,-999,0.00,,,0.00,weatherlink.com 1.10,2013-10-30 13:28:00,
2013-10-30 07:44:00,-999.0,-99.9,31.67,North,-999,-999.0,-999.0,-999,0.00,,,0.00,weatherlink.com 1.10,2013-10-30 13:44:00,
2013-10-30 07:59:00,-999.0,-99.9,31.67,North,-999,-999.0,-999.0,-999,0.00,,,0.00,weatherlink.com 1.10,2013-10-30 13:59:00,
2013-10-30 08:14:00,-999.0,-99.9,31.67,North,-999,-999.0,-999.0,-999,0.00,,,0.00,weatherlink.com 1.10,2013-10-30 14:14:00,
2013-10-30 08:29:00,-999.0,-99.9,31.68,North,-999,-999.0,-999.0,-999,0.00,,,0.00,weatherlink.com 1.10,2013-10-30 14:29:00,
2013-10-30 08:44:00,-999.0,-99.9,31.68,North,-999,-999.0,-999.0,-999,0.00,,,0.00,weatherlink.com 1.10,2013-10-30 14:44:00,
2013-10-30 08:59:00,-999.0,-99.9,31.68,North,-999,-999.0,-999.0,-999,0.00,,,0.00,weatherlink.com 1.10,2013-10-30 14:59:00,
2013-10-30 09:14:00,27.7,19.0,31.70,NW,319,2.0,3.0,70,0.00,,,0.00,weatherlink.com 1.10,2013-10-30 15:14:00,
2013-10-30 09:29:00,28.5,20.0,31.70,NW,319,0.0,0.0,69,0.00,,,0.00,weatherlink.com 1.10,2013-10-30 15:29:00,
2013-10-30 09:44:00,28.7,20.0,31.71,NW,319,0.0,3.0,70,0.00,,,0.00,weatherlink.com 1.10,2013-10-30 15:44:00,
2013-10-30 09:59:00,-999.0,-99.9,31.71,North,-999,-999.0,-999.0,-999,0.00,,,0.00,weatherlink.com 1.10,2013-10-30 15:59:00,
2013-10-30 10:14:00,-999.0,-99.9,31.70,North,-999,-999.0,-999.0,-999,0.00,,,0.00,weatherlink.com 1.10,2013-10-30 16:14:00,
2013-10-30 10:29:00,-999.0,-99.9,31.70,North,-999,-999.0,-999.0,-999,0.00,,,0.00,weatherlink.com 1.10,2013-10-30 16:29:00,
2013-10-30 10:44:00,-999.0,-99.9,31.69,North,-999,-999.0,-999.0,-999,0.00,,,0.00,weatherlink.com 1.10,2013-10-30 16:44:00,
2013-10-30 10:59:00,31.9,22.0,31.68,NW,319,2.0,3.0,66,0.00,,,0.00,weatherlink.com 1.10,2013-10-30 16:59:00,
2013-10-30 11:14:00,32.2,22.0,31.68,NW,319,2.0,3.0,67,0.00,,,0.00,weatherlink.com 1.10,2013-10-30 17:14:00,
2013-10-30 11:30:00,32.9,22.0,31.68,NW,319,2.0,3.0,65,0.00,,,0.00,weatherlink.com 1.10,2013-10-30 17:30:00,
2013-10-30 11:45:00,34.0,22.0,31.68,NW,319,3.0,3.0,63,0.00,,,0.00,weatherlink.com 1.10,2013-10-30 17:45:00,
2013-10-30 12:00:00,34.5,22.0,31.69,NW,319,0.0,5.0,61,0.00,,,0.00,weatherlink.com 1.10,2013-10-30 18:00:00,
2013-10-30 12:15:00,36.0,23.0,31.68,NW,319,3.0,4.0,59,0.00,,,0.00,weatherlink.com 1.10,2013-10-30 18:15:00,
2013-10-30 12:30:00,37.4,23.0,31.68,NW,319,2.0,5.0,57,0.00,,,0.00,weatherlink.com 1.10,2013-10-30 18:30:00,
2013-10-30 12:45:00,38.6,23.0,31.68,NW,319,0.0,5.0,54,0.00,,,0.00,weatherlink.com 1.10,2013-10-30 18:45:00,
2013-10-30 13:00:00,39.6,24.0,31.67,NW,319,3.0,3.0,53,0.00,,,0.00,weatherlink.com 1.10,2013-10-30 19:00:00,
2013-10-30 13:15:00,39.1,23.0,31.66,NW,319,2.0,6.0,53,0.00,,,0.00,weatherlink.com 1.10,2013-10-30 19:15:00,
2013-10-30 13:30:00,39.5,23.0,31.65,NW,319,2.0,3.0,52,0.00,,,0.00,weatherlink.com 1.10,2013-10-30 19:30:00,
2013-10-30 13:45:00,40.8,23.0,31.64,NW,319,0.0,3.0,50,0.00,,,0.00,weatherlink.com 1.10,2013-10-30 19:45:00,
2013-10-30 14:00:00,41.6,24.0,31.63,NW,319,0.0,5.0,49,0.00,,,0.00,weatherlink.com 1.10,2013-10-30 20:00:00,
2013-10-30 14:15:00,41.7,24.0,31.62,NW,317,2.0,6.0,50,0.00,,,0.00,weatherlink.com 1.10,2013-10-30 20:15:00,
2013-10-30 14:29:00,42.3,24.0,31.61,NW,317,2.0,4.0,48,0.00,,,0.00,weatherlink.com 1.10,2013-10-30 20:29:00,
2013-10-30 14:44:00,42.0,23.0,31.60,WSW,246,1.0,7.0,48,0.00,,,0.00,weatherlink.com 1.10,2013-10-30 20:44:00,
2013-10-30 15:15:00,43.3,24.0,31.60,SSW,211,6.0,7.0,46,0.00,,,0.00,weatherlink.com 1.10,2013-10-30 21:15:00,
2013-10-30 15:30:00,43.1,24.0,31.60,South,183,2.0,8.0,47,0.00,,,0.00,weatherlink.com 1.10,2013-10-30 21:30:00,
2013-10-30 15:45:00,43.9,24.0,31.60,SW,216,5.0,9.0,46,0.00,,,0.00,weatherlink.com 1.10,2013-10-30 21:45:00,
2013-10-30 16:00:00,44.4,24.0,31.60,SW,231,7.0,10.0,45,0.00,,,0.00,weatherlink.com 1.10,2013-10-30 22:00:00,
2013-10-30 16:15:00,43.4,24.0,31.59,SW,232,3.0,9.0,46,0.00,,,0.00,weatherlink.com 1.10,2013-10-30 22:15:00,
2013-10-30 16:30:00,43.2,24.0,31.60,SW,227,5.0,7.0,46,0.00,,,0.00,weatherlink.com 1.10,2013-10-30 22:30:00,
2013-10-30 16:45:00,43.0,24.0,31.59,WSW,240,4.0,7.0,48,0.00,,,0.00,weatherlink.com 1.10,2013-10-30 22:45:00,
2013-10-30 17:00:00,43.2,24.0,31.59,SW,219,4.0,6.0,47,0.00,,,0.00,weatherlink.com 1.10,2013-10-30 23:00:00,
2013-10-30 17:15:00,41.8,24.0,31.60,SW,232,0.0,5.0,49,0.00,,,0.00,weatherlink.com 1.10,2013-10-30 23:15:00,
2013-10-30 17:30:00,41.3,24.0,31.60,SW,232,0.0,3.0,50,0.00,,,0.00,weatherlink.com 1.10,2013-10-30 23:30:00,
2013-10-30 17:45:00,42.0,24.0,31.60,SW,236,1.0,4.0,49,0.00,,,0.00,weatherlink.com 1.10,2013-10-30 23:45:00,
2013-10-30 18:00:00,42.1,24.0,31.60,West,275,5.0,6.0,48,0.00,,,0.00,weatherlink.com 1.10,2013-10-31 00:00:00,
2013-10-30 18:15:00,42.0,23.0,31.60,West,267,2.0,6.0,47,0.00,,,0.00,weatherlink.com 1.10,2013-10-31 00:15:00,
2013-10-30 18:30:00,42.1,23.0,31.61,NW,325,2.0,12.0,47,0.00,,,0.00,weatherlink.com 1.10,2013-10-31 00:30:00,
2013-10-30 18:45:00,41.6,24.0,31.61,NW,326,0.0,4.0,49,0.00,,,0.00,weatherlink.com 1.10,2013-10-31 00:45:00,
2013-10-30 19:00:00,40.9,23.0,31.61,North,350,6.0,7.0,50,0.00,,,0.00,weatherlink.com 1.10,2013-10-31 01:00:00,
2013-10-30 19:15:00,41.0,23.0,31.61,NW,326,8.0,12.0,50,0.00,,,0.00,weatherlink.com 1.10,2013-10-31 01:15:00,
2013-10-30 19:30:00,41.2,23.0,31.62,NNW,346,3.0,11.0,49,0.00,,,0.00,weatherlink.com 1.10,2013-10-31 01:30:00,
2013-10-30 19:45:00,40.8,23.0,31.62,NNW,346,1.0,8.0,50,0.00,,,0.00,weatherlink.com 1.10,2013-10-31 01:45:00,
2013-10-30 20:00:00,40.6,23.0,31.63,NNW,337,2.0,9.0,50,0.00,,,0.00,weatherlink.com 1.10,2013-10-31 02:00:00,
2013-10-30 20:15:00,40.4,23.0,31.62,NW,304,6.0,7.0,50,0.00,,,0.00,weatherlink.com 1.10,2013-10-31 02:15:00,
2013-10-30 20:30:00,40.5,23.0,31.63,North,350,5.0,14.0,50,0.00,,,0.00,weatherlink.com 1.10,2013-10-31 02:30:00,
2013-10-30 20:45:00,40.2,23.0,31.63,NNW,332,3.0,6.0,50,0.00,,,0.00,weatherlink.com 1.10,2013-10-31 02:45:00,
2013-10-30 21:00:00,39.9,23.0,31.63,NNW,346,10.0,10.0,51,0.00,,,0.00,weatherlink.com 1.10,2013-10-31 03:00:00,
2013-10-30 21:15:00,39.6,24.0,31.63,NNW,336,4.0,11.0,53,0.00,,,0.00,weatherlink.com 1.10,2013-10-31 03:15:00,
2013-10-30 21:30:00,39.3,24.0,31.63,NNW,348,3.0,12.0,54,0.00,,,0.00,weatherlink.com 1.10,2013-10-31 03:30:00,
2013-10-30 21:45:00,38.9,23.0,31.63,North,355,7.0,8.0,54,0.00,,,0.00,weatherlink.com 1.10,2013-10-31 03:45:00,
2013-10-30 22:00:00,39.1,24.0,31.63,North,355,8.0,11.0,54,0.00,,,0.00,weatherlink.com 1.10,2013-10-31 04:00:00,
2013-10-30 22:15:00,39.4,23.0,31.63,NNW,336,7.0,12.0,52,0.00,,,0.00,weatherlink.com 1.10,2013-10-31 04:15:00,
2013-10-30 22:30:00,39.6,23.0,31.63,NNW,343,2.0,9.0,51,0.00,,,0.00,weatherlink.com 1.10,2013-10-31 04:30:00,
2013-10-30 22:45:00,39.5,22.0,31.63,North,355,2.0,11.0,50,0.00,,,0.00,weatherlink.com 1.10,2013-10-31 04:45:00,
2013-10-30 23:00:00,39.2,22.0,31.64,North,355,3.0,6.0,50,0.00,,,0.00,weatherlink.com 1.10,2013-10-31 05:00:00,
2013-10-30 23:15:00,39.4,22.0,31.65,North,5,5.0,9.0,50,0.00,,,0.00,weatherlink.com 1.10,2013-10-31 05:15:00,
2013-10-30 23:45:00,39.5,22.0,31.64,North,360,0.0,7.0,50,0.00,,,0.00,weatherlink.com 1.10,2013-10-31 05:45:00,